Regional Weather Roundup
Issued by NWS Northern Indiana

Home | Current Version | Previous Version | Graphics & Text | Print | Product List | Glossary On
Versions: 1 2 3 4 5 6 7 8 9 10 11 12 13 14 15 16 17 18 19 20 21 22 23 24 25 26 27 28 29 30 31 32 33 34 35 36 37 38 39 40 41 42 43 44 45 46 47 48 49 50
000
ASUS43 KIWX 060000
RWRIWX

KIWX WEATHER ROUNDUP
NATIONAL WEATHER SERVICE NORTHERN INDIANA
800 PM EDT TUE MAY 05 2015

NOTE: "FAIR" INDICATES FEW OR NO CLOUDS BELOW 12,000 FEET WITH NO
SIGNIFICANT WEATHER AND/OR OBSTRUCTIONS TO VISIBILITY.

* THESE STATIONS ARE NOT UNDER NWS QUALITY CONTROL. THEY ALSO MAY NOT
  REPORT WEATHER SUCH AS PRECIPITATION OR FOG.

INZ001>027-060100-
NORTHERN INDIANA

CITY           SKY/WX    TMP DP  RH WIND       PRES   REMARKS
GARY*          CLOUDY    50 N/A N/A VRB3      30.19F FOG
SOUTH BEND     CLOUDY    58  54  86 E8        30.20F
6HR MIN TEMP:  58; 6HR MAX TEMP:  67; 6HR PCP:  0.13;

GOSHEN         CLOUDY    56  54  93 E8        30.19S FOG
6HR MIN TEMP:  56; 6HR MAX TEMP:  72; 6HR PCP:  0.10;

ANGOLA*        CLOUDY    55  45  67 NE8       30.20F
FORT WAYNE     MOCLDY    61  58  90 NE14      30.18R
6HR MIN TEMP:  61; 6HR MAX TEMP:  80;


$$
INZ028>050-060100-
CENTRAL INDIANA

CITY           SKY/WX    TMP DP  RH WIND       PRES   REMARKS
LAFAYETTE      CLOUDY    77  52  41 S3        30.12R
6HR MIN TEMP:  77; 6HR MAX TEMP:  83;

KOKOMO*        PTCLDY    77  54  44 SW8       30.14R
6HR MIN TEMP:  77; 6HR MAX TEMP:  82;

MUNCIE*        CLEAR     79  53  40 SW8       30.15F
6HR MIN TEMP:  77; 6HR MAX TEMP:  82;

INDIANAPOLIS   PTCLDY    76  53  44 S8        30.15R
6HR MIN TEMP:  76; 6HR MAX TEMP:  83;


$$
MIZ043>046-050>051-056>058-064>065-071>073-077>080-060100-
SOUTHWEST LOWER MICHIGAN

CITY           SKY/WX    TMP DP  RH WIND       PRES   REMARKS
BATTLE CREEK   CLOUDY    51  49  92 E5        30.24S
6HR MIN TEMP:  49; 6HR MAX TEMP:  51; 6HR PCP:  0.10;

BENTON HARBOR  CLOUDY    53  51  93 E8        30.19F
6HR MIN TEMP:  53; 6HR MAX TEMP:  56; 6HR PCP:  0.01;

COLDWATER*     CLOUDY    52  51  96 E9        30.22S FOG
6HR MIN TEMP:  52; 6HR MAX TEMP:  54;

HILLSDALE*     LGT RAIN  52  52 100 E7        30.23S
HOLLAND        LGT RAIN  53  50  89 E10       30.23F
6HR MIN TEMP:  50; 6HR MAX TEMP:  53; 6HR PCP:  0.10;

GRAND RAPIDS   CLOUDY    54  49  83 E8        30.24F
6HR MIN TEMP:  49; 6HR MAX TEMP:  55; 6HR PCP:  0.21;

KALAMAZOO      LGT RAIN  52  49  89 VRB5      30.23F
6HR MIN TEMP:  50; 6HR MAX TEMP:  52; 6HR PCP:  0.02;

STURGIS*       CLOUDY    54  52  94 E3        30.23R FOG
THREE RIVERS*  CLOUDY    51  49  92 NE6       30.23S

$$
OHZ001>008-015>018-024>025-060100-
NORTHWEST OHIO

CITY           SKY/WX    TMP DP  RH WIND       PRES   REMARKS
DEFIANCE       CLOUDY    56  52  86 NE10G20   30.21S FOG
6HR MIN TEMP:  56; 6HR MAX TEMP:  65; 6HR PCP:  0.02;

FINDLAY        MOCLDY    59  52  77 NE15      30.19F
6HR MIN TEMP:  59; 6HR MAX TEMP:  76;

TOLEDO EXPRESS CLOUDY    53  47  79 E12       30.23S
6HR MIN TEMP:  53; 6HR MAX TEMP:  58; 6HR PCP:  0.01;

TOLEDO METCALF CLOUDY    53  47  79 NE9       30.24F
6HR MIN TEMP:  52; 6HR MAX TEMP:  55; 6HR PCP:  0.03;

LIMA           CLEAR     69  63  81 NE9       30.17S HAZE
6HR MIN TEMP:  69; 6HR MAX TEMP:  79;


$$
AND FOR LAKE MICHIGAN COASTAL AND OPEN LAKE BUOY OBSERVATIONS

STATION/POSITION TEMP    WIND        PRES    VSBY  WAVE
                 AIR SEA DIR/SP/G                  HT/PER
                 (F)     (DEG/KT/KT) (MB)    (MI)  (FT/S)
CALUMET HARBOR    47     350/  7/  9   N/A
MICHIGAN CITY     56      30/ 12/ 13   N/A
BURNS HARBOR      53      60/  6/  8 1022.4R
SAINT JOSEPH      56      60/  1/  7 1022.7F
4 MI NW BRIDGMAN  54 49  120/  8/ 12   N/A           1/ 3
MICHIGAN CITY     52 50   70/  8/ 10   N/A           2/ 3
MICHIGAN CITY CG     57              1024.3S  3 1/2  2

$$
&&


USA.gov is the U.S. government's official web portal to all federal, state and local government web resources and services.